Location: Unspecified
(50.7693°N, 0.0000°E)
Time: 02:17:30
(UTC+00:00)

Transit 4A - Pass Details

Date: 04 July 2019
Orbit: 862 x 982 km, 66.8° (Epoch: 16 July)

Event Time Altitude Azimuth Distance (km) Brightness Sun altitude
Rises 12:45:17 0° 321° (NW) 3,696 10.9 61.0°
Reaches altitude 10° 12:47:59 10° 327° (NNW) 2,740 10.3 60.8°
Maximum altitude 12:54:12 49° 42° (NE) 1,235 8.9 60.5°
Drops below altitude 10° 13:00:15 10° 117° (ESE) 2,673 10.4 60.1°
Sets 13:02:51 0° 123° (ESE) 3,597 11.0 59.9°
